#timestamp,LO_Frequency,Hit,StdDev 
1506481215.3,286046999.9,N
1506481235.1,286046998.6,N
1506481255.8,286046998.4,N
1506481275.7,286046999.5,N
1506481295.5,286046996.8,N
1506481315.3,286046995.1,N
1506481335.2,286046992.1,Y
1506481355.0,286046993.5,P
1506481355.9,286046993.5,N
1506481375.7,286046996.2,N
1506481395.6,286046994.2,N
1506481415.4,286046994.4,N
1506481435.2,286046990.5,Y
1506481455.1,286046996.3,P
1506481456.0,286046996.3,P
1506481475.8,286046994.9,P
1506481495.6,286046994.0,Y
1506481515.5,286046997.2,P
1506481535.3,286046999.2,N
1506481555.1,286046996.5,N
1506481575.9,286046998.5,N
1506481595.7,286046999.0,N
1506481615.5,286046997.1,N
1506481635.4,286046992.7,Y
1506481655.2,286046999.3,P
1506481675.0,286046996.9,P
1506481675.9,286046996.9,P
1506481695.8,286047002.2,N
1506481715.6,286047006.0,N
1506481735.4,286047008.7,N
1506481755.3,286047008.8,N
1506481775.1,286047010.4,N
1506481776.0,286047010.4,N
1506481795.8,286047013.5,N
1506481815.7,286047010.5,N
1506481835.5,286047012.2,N
1506481855.3,286047015.1,N
1506481875.2,286047017.9,N
1506481895.9,286047018.4,N
1506481915.7,286047018.1,N
1506481935.5,286047018.1,N
1506481955.4,286047020.4,N
1506481975.2,286047021.2,N
1506481995.0,286047021.7,N
1506481995.9,286047021.7,N
1506482015.8,286047022.4,N
1506482035.6,286047026.1,Y
1506482055.4,286047012.0,P
1506482075.3,286047008.7,P
1506482095.1,286047007.1,P
1506482096.0,286047007.1,Y
1506482115.8,286046998.2,P
1506482135.7,286046998.5,N
1506482155.5,286046997.4,N
1506482175.3,286046997.5,N
1506482195.2,286046999.0,N
1506482215.9,286046998.7,N
1506482235.7,286046998.2,N
1506482255.6,286046998.5,N
1506482275.4,286047000.4,N
1506482295.2,286047002.0,N
1506482315.1,286046999.0,N
1506482316.0,286046999.0,N
1506482335.8,286046996.6,N
1506482355.6,286046994.0,N
1506482375.4,286046998.0,N
1506482395.3,286046997.4,N
1506482415.1,286046998.0,N
1506482435.8,286046997.2,N
1506482455.7,286046992.5,N
1506482475.5,286046990.7,N
1506482495.3,286046987.6,Y
1506482515.2,286046989.9,P
1506482535.9,286046987.8,N
1506482555.7,286046986.0,P
1506482575.6,286046985.3,Y
1506482595.4,286046997.6,P
1506482615.2,286046997.1,N
1506482635.1,286046999.2,N
1506482636.0,286046999.2,N
1506482655.8,286046996.8,N
1506482675.6,286046997.3,N
1506482695.5,286046993.6,N
1506482715.3,286046996.4,N
1506482735.1,286046991.7,Y
1506482755.9,286046996.3,P
1506482775.7,286046995.9,P
1506482795.5,286046996.1,P
1506482815.4,286046997.6,Y
1506482835.2,286047002.9,P
1506482855.0,286047004.4,N
1506482855.9,286047004.4,N
1506482875.8,286047004.4,N
1506482895.6,286047003.2,N
1506482915.4,286047001.6,N
1506482935.3,286047002.4,N
1506482955.1,286047001.7,N
1506482956.0,286047001.7,N
1506482975.8,286047005.4,N
1506482995.7,286047007.3,Y
1506483015.5,286047003.3,P
1506483035.3,286047005.1,P
1506483055.1,286047005.0,P
1506483075.9,286047009.2,Y
1506483095.7,286047006.9,P
1506483115.6,286047005.9,P
1506483135.4,286047004.2,P
1506483155.2,286047004.4,Y
1506483175.1,286046997.2,P
1506483176.0,286046997.2,N
1506483195.8,286046999.3,N
1506483215.6,286047000.6,N
1506483235.4,286047000.7,N
1506483255.3,286046998.1,N
1506483275.1,286046999.6,N
1506483295.8,286046996.5,N
1506483315.7,286046996.6,N
1506483335.5,286046999.8,N
1506483355.3,286047001.4,N
1506483375.2,286047002.2,N
1506483395.9,286047003.9,N
1506483415.7,286047003.8,N
1506483435.6,286047001.8,N
1506483455.4,286047000.8,N
1506483475.2,286047000.0,N
1506483495.0,286047001.9,N
1506483496.0,286047001.9,N
1506483515.8,286047001.5,N
1506483535.6,286047002.8,N
1506483555.4,286046999.8,N
1506483575.3,286047000.9,N
1506483595.1,286047000.9,N
1506483615.8,286047002.1,N
1506483635.7,286046998.8,N
1506483655.5,286047000.9,N
1506483675.3,286046999.0,N
1506483695.2,286046997.4,N
1506483715.9,286046995.8,N
1506483735.7,286046994.7,N
1506483755.6,286046991.5,Y
1506483775.4,286046990.2,P
1506483795.2,286046991.5,N
1506483815.1,286046989.6,N
1506483816.0,286046989.6,N
1506483835.8,286046989.9,N
1506483855.6,286046989.6,N
1506483875.4,286046990.0,N
1506483895.3,286046988.6,Y
1506483915.1,286047001.1,P
1506483935.8,286047000.0,N
1506483955.7,286047004.0,N
1506483975.5,286047002.0,N
1506483995.3,286046999.2,N
1506484015.2,286046995.0,N
1506484035.9,286047001.3,N
1506484055.7,286047007.0,N
1506484075.6,286047006.1,N
1506484095.4,286047013.6,N
1506484115.2,286047015.5,N
1506484135.1,286047012.8,N
1506484136.0,286047012.8,N
1506484155.8,286047014.4,N
1506484175.6,286047012.6,N
1506484195.5,286047012.5,N
1506484215.3,286047015.3,N
1506484235.1,286047016.4,N
1506484255.8,286047014.1,N
1506484275.7,286047017.4,N
1506484295.5,286047017.7,N
1506484315.3,286047018.3,N
1506484335.2,286047014.2,N
1506484355.9,286047016.9,N
1506484375.7,286047014.2,N
1506484395.6,286047014.3,N
1506484415.4,286047014.1,N
1506484435.2,286047018.6,N
1506484455.1,286047012.8,N
1506484456.0,286047012.8,N
1506484475.8,286047016.5,N
1506484495.6,286047014.8,N
1506484515.5,286047016.7,N
1506484535.3,286047017.3,N
1506484555.1,286047018.6,Y
1506484575.9,286047007.4,P
1506484595.7,286047003.3,N
1506484615.5,286047004.5,N
1506484635.3,286047006.1,N
1506484655.2,286047009.6,N
1506484675.0,286047009.8,Y
1506484675.9,286047009.8,P
1506484695.8,286046998.5,N
1506484715.6,286046996.8,N
1506484735.4,286046998.4,N
1506484755.2,286046996.6,N
1506484775.1,286046996.9,N
1506484776.0,286046996.9,N
1506484795.8,286046994.6,N
